DW9498 Weather Reports


Display with metric or nautical units.
time (UTC)temp
F
wind
direction
speed
MPH
gust
MPH
rain 1hr
in
rain 24hr
in
rain mn
in
humidity
%
barometer
mb
20260505124342 49 311 0.0 0.0 0.00 0.02 0.02 64 1011.5
20260505123327 49 334 0.0 1.0 0.00 0.02 0.02 66 1011.3
20260505122357 48 7 0.0 4.0 0.00 0.02 0.02 68 1011.0
20260505121324 48 12 0.0 0.0 0.00 0.02 0.02 71 1011.0
20260505120336 48 12 0.0 1.0 0.00 0.02 0.02 71 1010.8
20260505115330 48 12 0.0 0.0 0.00 0.02 0.02 69 1010.5
20260505114352 48 12 0.0 1.0 0.00 0.02 0.02 69 1010.3
20260505113330 48 11 0.0 2.0 0.00 0.02 0.02 70 1010.2
20260505112323 48 10 0.0 0.0 0.00 0.02 0.02 70 1010.1
20260505111326 48 10 0.0 1.0 0.00 0.02 0.02 70 1010.3
20260505110338 47 10 0.0 1.0 0.00 0.02 0.02 71 1010.4
20260505101334 48 125 0.0 0.0 0.00 0.02 0.02 79 1010.6
20260505100342 48 125 0.0 0.0 0.00 0.02 0.02 79 1010.6
20260505095328 48 125 0.0 0.0 0.00 0.02 0.02 79 1010.6
20260505094332 48 125 0.0 0.0 0.00 0.02 0.02 79 1010.5
20260505093343 48 125 0.0 0.0 0.00 0.02 0.02 80 1010.4
20260505092349 48 125 0.0 0.0 0.00 0.02 0.02 79 1010.2
20260505091340 48 228 0.0 0.0 0.00 0.02 0.02 81 1009.9
20260505090327 48 228 0.0 0.0 0.00 0.02 0.02 81 1009.7
20260505085401 49 228 0.0 0.0 0.00 0.02 0.02 80 1009.6
20260505084343 49 220 0.0 0.0 0.00 0.02 0.02 81 1009.5
20260505083353 49 156 0.0 1.0 0.01 0.02 0.02 81 1009.7
20260505082325 49 157 0.0 0.0 0.01 0.02 0.02 81 1009.5
20260505081331 48 338 0.0 0.0 0.01 0.02 0.02 80 1009.4
20260505080358 49 338 0.0 0.0 0.01 0.02 0.02 80 1008.9
20260505075349 48 338 0.0 0.0 0.01 0.02 0.02 80 1008.8
20260505074335 48 341 0.0 0.0 0.00 0.01 0.01 79 1008.9
20260505073349 48 341 0.0 0.0 0.01 0.01 0.01 78 1008.9
20260505072331 48 15 0.0 0.0 0.01 0.01 0.01 78 1009.0
20260505071336 49 15 0.0 0.0 0.01 0.01 0.01 76 1008.8
20260505070347 49 15 0.0 0.0 0.01 0.01 0.01 73 1008.8
20260505065339 49 15 0.0 1.0 0.01 0.01 0.01 71 1008.5
20260505064327 50 15 0.0 0.0 0.00 0.00 0.00 67 1008.6
20260505063400 50 15 1.0 3.0 0.00 0.00 0.00 67 1008.9
20260505062327 50 11 0.0 3.0 0.00 0.00 0.00 65 1008.7
20260505061342 50 334 0.0 2.0 0.00 0.00 0.00 63 1009.5
20260505060332 50 346 1.0 3.0 0.00 0.00 0.00 63 1008.9
20260505055339 51 354 2.0 5.0 0.00 0.00 0.00 62 1008.9
20260505054342 51 345 1.0 7.0 0.00 0.00 0.00 62 1009.0
20260505053348 51 18 3.0 5.0 0.00 0.00 0.00 60 1009.0
20260505052330 51 15 3.0 8.0 0.00 0.00 0.00 61 1008.6
20260505051335 51 353 2.0 8.0 0.00 0.00 0.00 61 1008.5
20260505050325 51 331 4.0 8.0 0.00 0.00 0.00 60 1009.0
20260505041358 55 344 6.0 11.0 0.00 0.00 0.00 45 1009.1
20260505040347 55 25 5.0 10.0 0.00 0.00 0.00 42 1009.1
20260505035329 55 341 3.0 7.0 0.00 0.00 0.00 44 1008.9
20260505034334 56 328 4.0 13.0 0.00 0.00 0.00 43 1008.4
20260505033326 56 318 5.0 16.0 0.00 0.00 0.00 43 1008.5
20260505032339 56 337 8.0 19.0 0.00 0.00 0.00 43 1008.2
20260505031327 56 26 6.0 19.0 0.00 0.00 0.00 42 1008.3
20260505030334 57 5 4.0 13.0 0.00 0.00 0.00 42 1008.0
20260505025325 57 27 7.0 15.0 0.00 0.00 0.00 42 1008.0
20260505024342 57 24 4.0 9.0 0.00 0.00 0.00 42 1008.0
20260505023349 58 22 9.0 17.0 0.00 0.00 0.00 42 1007.3
20260505022332 58 314 8.0 14.0 0.00 0.00 0.00 42 1006.9
20260505021338 58 24 5.0 10.0 0.00 0.00 0.00 42 1006.9
20260505020348 58 360 7.0 17.0 0.00 0.00 0.00 42 1006.6
20260505015328 59 20 6.0 18.0 0.00 0.00 0.00 42 1006.6
20260505014346 60 353 8.0 14.0 0.00 0.00 0.00 40 1006.3
20260505013326 61 20 9.0 16.0 0.00 0.00 0.00 39 1006.2
20260505012339 61 348 5.0 17.0 0.00 0.00 0.00 38 1005.9
20260505011402 62 13 8.0 14.0 0.00 0.00 0.00 37 1005.9
20260505010410 63 348 7.0 15.0 0.00 0.00 0.00 36 1005.6
20260505005351 65 7 6.0 12.0 0.00 0.00 0.00 34 1005.4
20260505004337 65 358 8.0 18.0 0.00 0.00 0.00 33 1005.2
20260505003348 66 7 8.0 14.0 0.00 0.00 0.00 33 1005.2
20260505002336 68 17 8.0 14.0 0.00 0.00 0.00 32 1004.9
20260505001324 68 26 9.0 14.0 0.00 0.00 0.00 32 1004.6
20260505000333 69 339 6.0 12.0 0.00 0.00 0.00 33 1004.4
20260504235340 69 353 7.0 15.0 0.00 0.00 0.00 31 1004.4
20260504234340 70 24 5.0 14.0 0.00 0.00 0.00 31 1004.3
20260504233325 71 349 5.0 16.0 0.00 0.00 0.00 30 1004.3
20260504232336 71 5 5.0 13.0 0.00 0.00 0.00 31 1004.0
20260504231343 72 26 6.0 12.0 0.00 0.00 0.00 29 1003.9
20260504230411 74 341 7.0 11.0 0.00 0.00 0.00 28 1003.7
20260504225353 74 12 5.0 12.0 0.00 0.00 0.00 29 1003.3
20260504224336 74 356 3.0 14.0 0.00 0.00 0.00 31 1003.2
20260504223326 75 340 7.0 17.0 0.00 0.00 0.00 29 1003.0
20260504222341 76 338 5.0 12.0 0.00 0.00 0.00 30 1002.8
20260504221347 76 1 9.0 14.0 0.00 0.00 0.00 27 1002.5
20260504220332 77 17 5.0 15.0 0.00 0.00 0.00 28 1002.3
20260504215338 77 340 5.0 12.0 0.00 0.00 0.00 28 1002.2
20260504214340 77 332 4.0 15.0 0.00 0.00 0.00 29 1002.2
20260504213350 78 15 5.0 11.0 0.00 0.00 0.00 30 1002.1
20260504212334 78 30 4.0 10.0 0.00 0.00 0.00 31 1002.1
20260504211334 78 358 6.0 9.0 0.00 0.00 0.00 31 1002.0
20260504210406 78 19 6.0 13.0 0.00 0.00 0.00 31 1002.2
20260504205330 78 22 4.0 11.0 0.00 0.00 0.00 33 1002.0
20260504204337 79 318 5.0 10.0 0.00 0.00 0.00 34 1001.9
20260504203411 78 31 3.0 11.0 0.00 0.00 0.00 33 1001.9
20260504202336 79 1 6.0 14.0 0.00 0.00 0.00 33 1001.9
20260504201325 79 22 5.0 11.0 0.00 0.00 0.00 34 1002.0
20260504200336 79 360 4.0 12.0 0.00 0.00 0.00 34 1001.8
20260504195326 79 325 3.0 12.0 0.00 0.00 0.00 33 1001.8
20260504194344 79 23 7.0 14.0 0.00 0.00 0.00 33 1001.8
20260504193330 79 3 6.0 13.0 0.00 0.00 0.00 35 1001.8
20260504192340 80 337 4.0 11.0 0.00 0.00 0.00 33 1001.7
20260504191328 80 306 5.0 12.0 0.00 0.00 0.00 31 1001.6
20260504190338 81 154 2.0 13.0 0.00 0.00 0.00 32 1001.5
20260504185330 82 22 3.0 7.0 0.00 0.00 0.00 30 1001.4
20260504184348 81 325 4.0 9.0 0.00 0.00 0.00 30 1001.4
20260504183326 81 22 2.0 11.0 0.00 0.00 0.00 29 1001.3
20260504182359 82 283 2.0 9.0 0.00 0.00 0.00 30 1001.3
20260504181325 81 45 2.0 6.0 0.00 0.00 0.00 27 1001.4
20260504180349 81 4 2.0 7.0 0.00 0.00 0.00 33 1001.6
20260504175341 80 315 5.0 10.0 0.00 0.00 0.00 29 1001.7
20260504174327 80 28 4.0 12.0 0.00 0.00 0.00 30 1001.8
20260504173356 79 243 2.0 10.0 0.00 0.00 0.00 33 1001.8
20260504172326 79 337 3.0 8.0 0.00 0.00 0.00 32 1001.9
20260504171331 79 308 3.0 7.0 0.00 0.00 0.00 32 1001.9
20260504170338 78 330 2.0 11.0 0.00 0.00 0.00 35 1002.1
20260504160359 75 140 2.0 5.0 0.00 0.00 0.00 39 1002.2
20260504150324 68 344 2.0 3.0 0.00 0.00 0.00 46 1002.3
20260504140325 62 273 1.0 5.0 0.00 0.00 0.00 53 1002.7